Location: *
(43.6428°N, 11.5461°E)
Time: 00:53:48
(UTC+00:00)

Envisat - Pass Details

Date: 21 October 2019
Orbit: 764 x 766 km, 98.1° (Epoch: 12 November)

Event Time Altitude Azimuth Distance (km) Brightness Sun altitude
Rises 16:51:37 0° 154° (SSE) 3,220 6.0 -6.2°
Reaches altitude 10° 16:53:56 10° 150° (SSE) 2,298 5.3 -6.6°
Maximum altitude 16:58:53 58° 72° (ENE) 893 3.1 -7.5°
Drops below altitude 10° 17:03:53 10° 355° (N) 2,313 5.5 -8.4°
Sets 17:06:13 0° 351° (N) 3,243 6.3 -8.8°
